Location: Krasnoyarskiy Pitomnik
(51.1333°N, 71.6167°E)
Time: 09:47:04
(UTC+00:00)

Envisat - Pass Details

Date: 04 March 2024
Orbit: 762 x 764 km, 98.3° (Epoch: 21 April)

Event Time Altitude Azimuth Distance (km) Brightness Sun altitude
Rises 00:04:59 0° 7° (N) 3,245 6.5 -17.4°
Reaches altitude 10° 00:07:35 10° 356° (N) 2,314 5.6 -17.0°
Maximum altitude 00:11:47 27° 300° (WNW) 1,448 4.0 -16.4°
Enters shadow 00:12:51 25° 279° (W) 1,515 4.0 -16.2°
